Location: *
(2.5500°S, 65.9667°W)
Time: 03:32:34
(UTC+00:00)

ARIANE 6 FM1 Upper Stage - Visible Passes

Search period start: 17 January 2026 00:00
Search period end: 27 January 2026 00:00
Orbit: 522 x 610 km, 62.0° (Epoch: 16 January)

Date Brightness Start Highest point End Pass type
(mag) Time Alt. Az. Time Alt. Az. Time Alt. Az.
17 Jan 5.9 23:51:24 10° WNW 23:51:36 10° WNW 23:51:47 10° WNW visible
22 Jan 5.4 08:33:48 10° NE 08:35:42 13° ENE 08:37:43 10° E visible
23 Jan 4.6 08:34:58 21° NE 08:35:49 23° ENE 08:39:09 10° ESE visible
24 Jan 3.8 08:36:06 40° ENE 08:36:06 40° ENE 08:39:53 10° SE visible
25 Jan 3.5 08:37:10 47° SE 08:37:10 47° SE 08:40:16 10° SSE visible
26 Jan 4.2 08:38:09 29° S 08:38:09 29° S 08:40:21 10° SSE visible
